Back to catalog

SL-8 R/B

AlivePO
NORAD 13618·ROCKET BODY·🇷🇺 Russia

Launched Oct 19, 1982 from Plesetsk Cosmodrome

Loading…

Next Passes (next 24 hours)

TLE

FreshSource: Space-Track

Epoch: Sep 14, 2026, 11:54 UTC

1 13618U 82102B   26257.49636046  .00000080  00000-0  65104-4 0  9990
2 13618  82.9707 159.3872 0032874  40.9222 131.6744 13.77064407205655

Track SL-8 R/B in real time with AllMySat

Download on the App Store